Satellite: HUBBLE
Catalog number: 20580
Epoch time:      09351.11789052
Element set:     490
Inclination:      028.4720 deg
RA of node:       348.3487 deg
Eccentricity:    0.0003274
Arg of perigee:   070.8937 deg
Mean anomaly:     289.2065 deg
Mean motion:   15.00866238 rev/day
Decay rate:       3.16e-06 rev/day^2
Epoch rev:           87736
Checksum:              310

Satellite: ISS
Catalog number: 25544
Epoch time:      09351.83978130
Element set:     191
Inclination:      051.6444 deg
RA of node:       082.8637 deg
Eccentricity:    0.0008135
Arg of perigee:   090.4642 deg
Mean anomaly:     008.4402 deg
Mean motion:   15.76670945 rev/day
Decay rate:     1.9369e-04 rev/day^2
Epoch rev:           63489
Checksum:              321

Satellite: CO-58
Catalog number: 28895
Epoch time:      09349.70424699
Element set:    0465
Inclination:      098.0372 deg
RA of node:       234.9884 deg
Eccentricity:    0.0018622
Arg of perigee:   137.9983 deg
Mean anomaly:     222.2634 deg
Mean motion:   14.59824611 rev/day
Decay rate:       1.13e-06 rev/day^2
Epoch rev:           22021
Checksum:              336

Satellite: FALCON
Catalog number: 30776
Epoch time:      09349.67418475
Element set:    0725
Inclination:      035.4332 deg
RA of node:       078.1887 deg
Eccentricity:    0.0001505
Arg of perigee:   003.3904 deg
Mean anomaly:     356.6821 deg
Mean motion:   15.03393607 rev/day
Decay rate:       3.82e-06 rev/day^2
Epoch rev:           15242
Checksum:              297

Satellite: MAST
Catalog number: 31126
Epoch time:      09351.69840610
Element set:     756
Inclination:      097.9647 deg
RA of node:       037.8530 deg
Eccentricity:    0.0095720
Arg of perigee:   070.2237 deg
Mean anomaly:     290.9326 deg
Mean motion:   14.53539127 rev/day
Decay rate:        8.9e-07 rev/day^2
Epoch rev:           14169
Checksum:              314

Satellite: CAPE1
Catalog number: 31130
Epoch time:      09350.67753082
Element set:     768
Inclination:      097.9671 deg
RA of node:       034.6665 deg
Eccentricity:    0.0103695
Arg of perigee:   080.0761 deg
Mean anomaly:     281.2118 deg
Mean motion:   14.52114884 rev/day
Decay rate:        4.0e-08 rev/day^2
Epoch rev:           14117
Checksum:              290

Satellite: COMPASS
Catalog number: 32787
Epoch time:      09350.71130591
Element set:    0549
Inclination:      097.9216 deg
RA of node:       052.7741 deg
Eccentricity:    0.0016252
Arg of perigee:   155.9382 deg
Mean anomaly:     204.2581 deg
Mean motion:   14.81714852 rev/day
Decay rate:       1.73e-06 rev/day^2
Epoch rev:           08847
Checksum:              308

Satellite: AAUSAT2
Catalog number: 32788
Epoch time:      09349.65084125
Element set:    0538
Inclination:      097.9211 deg
RA of node:       051.8151 deg
Eccentricity:    0.0015583
Arg of perigee:   160.4385 deg
Mean anomaly:     199.7430 deg
Mean motion:   14.81843467 rev/day
Decay rate:        1.0e-07 rev/day^2
Epoch rev:           08832
Checksum:              312

Satellite: DO-64
Catalog number: 32789
Epoch time:      09350.75134347
Element set:    0570
Inclination:      097.9261 deg
RA of node:       053.1994 deg
Eccentricity:    0.0016093
Arg of perigee:   155.2042 deg
Mean anomaly:     204.9947 deg
Mean motion:   14.81889729 rev/day
Decay rate:       5.95e-06 rev/day^2
Epoch rev:           08848
Checksum:              354

Satellite: CO-66
Catalog number: 32791
Epoch time:      09351.72159844
Element set:     535
Inclination:      097.9227 deg
RA of node:       053.8033 deg
Eccentricity:    0.0016268
Arg of perigee:   150.9385 deg
Mean anomaly:     209.2727 deg
Mean motion:   14.81527917 rev/day
Decay rate:        7.8e-07 rev/day^2
Epoch rev:            8858
Checksum:              346

Satellite: RS-30
Catalog number: 32953
Epoch time:      09350.82064820
Element set:     477
Inclination:      082.5009 deg
RA of node:       143.0736 deg
Eccentricity:    0.0019421
Arg of perigee:   139.0929 deg
Mean anomaly:     221.1617 deg
Mean motion:   12.43003223 rev/day
Decay rate:        1.0e-07 rev/day^2
Epoch rev:            7108
Checksum:              256

Satellite: TACSAT-3
Catalog number: 35001
Epoch time:      09350.91510701
Element set:    0192
Inclination:      040.4560 deg
RA of node:       227.3020 deg
Eccentricity:    0.0021986
Arg of perigee:   079.0456 deg
Mean anomaly:     281.2834 deg
Mean motion:   15.39786787 rev/day
Decay rate:      2.986e-05 rev/day^2
Epoch rev:           03251
Checksum:              291

Satellite: PHARMSAT
Catalog number: 35002
Epoch time:      09349.90478058
Element set:    0165
Inclination:      040.4691 deg
RA of node:       232.1590 deg
Eccentricity:    0.0024949
Arg of perigee:   076.0720 deg
Mean anomaly:     284.2870 deg
Mean motion:   15.40477773 rev/day
Decay rate:      2.521e-05 rev/day^2
Epoch rev:           03236
Checksum:              292

Satellite: HAWKSAT1
Catalog number: 35003
Epoch time:      09350.97258063
Element set:    0170
Inclination:      040.4612 deg
RA of node:       224.2274 deg
Eccentricity:    0.0023350
Arg of perigee:   090.5495 deg
Mean anomaly:     269.8001 deg
Mean motion:   15.41721606 rev/day
Decay rate:      5.580e-05 rev/day^2
Epoch rev:           03255
Checksum:              262

